Time,TemperatureF,DewpointF,PressureIn,WindDirection,WindDirectionDegrees,WindSpeedMPH,WindSpeedGustMPH,Humidity,HourlyPrecipIn,Conditions,Clouds,dailyrainin,SoftwareType,DateUTC
2013-03-13 00:03:00,51.0,49.0,29.69,SW,220,1.0,-999.0,94,-99.99,,,-99.99,,2013-03-13 04:03:00,
2013-03-13 00:13:00,51.0,49.0,29.69,SW,220,1.0,-999.0,94,-99.99,,,-99.99,,2013-03-13 04:13:00,
2013-03-13 00:22:00,51.0,49.0,29.69,SSW,211,1.0,-999.0,94,-99.99,,,-99.99,,2013-03-13 04:22:00,
2013-03-13 00:32:00,51.0,49.0,29.70,SSW,211,0.0,-999.0,94,-99.99,,,-99.99,,2013-03-13 04:32:00,
2013-03-13 00:43:00,51.0,49.0,29.70,SSW,211,0.0,-999.0,94,-99.99,,,-99.99,,2013-03-13 04:43:00,
2013-03-13 00:52:00,51.0,49.0,29.70,SSW,211,0.0,-999.0,94,-99.99,,,-99.99,,2013-03-13 04:52:00,
2013-03-13 01:02:00,49.0,47.0,29.70,West,268,2.0,-999.0,93,-99.99,,,-99.99,,2013-03-13 05:02:00,
2013-03-13 01:12:00,49.0,47.0,29.70,West,268,2.0,-999.0,93,-99.99,,,-99.99,,2013-03-13 05:12:00,
2013-03-13 01:22:00,47.0,45.0,29.71,West,279,4.0,-999.0,92,-99.99,,,-99.99,,2013-03-13 05:22:00,
2013-03-13 01:32:00,46.0,43.0,29.70,WNW,282,4.0,-999.0,90,-99.99,,,-99.99,,2013-03-13 05:32:00,
2013-03-13 01:42:00,46.0,43.0,29.70,WNW,282,4.0,-999.0,90,-99.99,,,-99.99,,2013-03-13 05:42:00,
2013-03-13 01:52:00,45.0,42.0,29.71,West,279,3.0,-999.0,89,-99.99,,,-99.99,,2013-03-13 05:52:00,
2013-03-13 02:02:00,44.0,41.0,29.71,WNW,286,4.0,-999.0,89,-99.99,,,-99.99,,2013-03-13 06:02:00,
2013-03-13 02:12:00,44.0,41.0,29.71,WNW,286,4.0,-999.0,89,-99.99,,,-99.99,,2013-03-13 06:12:00,
2013-03-13 02:23:00,43.0,40.0,29.71,West,281,4.0,-999.0,89,-99.99,,,-99.99,,2013-03-13 06:23:00,
2013-03-13 02:32:00,43.0,40.0,29.71,WNW,298,5.0,-999.0,88,-99.99,,,-99.99,,2013-03-13 06:32:00,
2013-03-13 02:42:00,43.0,40.0,29.71,WNW,298,5.0,-999.0,88,-99.99,,,-99.99,,2013-03-13 06:42:00,
2013-03-13 02:52:00,42.0,38.0,29.70,West,269,4.0,-999.0,87,-99.99,,,-99.99,,2013-03-13 06:52:00,
2013-03-13 03:03:00,42.0,38.0,29.71,WNW,300,4.0,-999.0,87,-99.99,,,-99.99,,2013-03-13 07:03:00,
2013-03-13 03:12:00,42.0,38.0,29.71,WNW,300,4.0,-999.0,87,-99.99,,,-99.99,,2013-03-13 07:12:00,
2013-03-13 03:22:00,41.0,37.0,29.72,West,269,2.0,-999.0,87,-99.99,,,-99.99,,2013-03-13 07:22:00,
2013-03-13 03:33:00,41.0,37.0,29.72,West,271,1.0,-999.0,87,-99.99,,,-99.99,,2013-03-13 07:33:00,
2013-03-13 03:42:00,41.0,37.0,29.72,West,271,1.0,-999.0,87,-99.99,,,-99.99,,2013-03-13 07:42:00,
2013-03-13 03:52:00,41.0,37.0,29.72,WNW,290,2.0,-999.0,86,-99.99,,,-99.99,,2013-03-13 07:52:00,
2013-03-13 04:03:00,40.0,36.0,29.71,NW,313,3.0,-999.0,86,-99.99,,,-99.99,,2013-03-13 08:03:00,
2013-03-13 04:12:00,40.0,36.0,29.71,NW,313,3.0,-999.0,86,-99.99,,,-99.99,,2013-03-13 08:12:00,
2013-03-13 04:23:00,40.0,36.0,29.71,West,278,5.0,-999.0,84,-99.99,,,-99.99,,2013-03-13 08:23:00,
2013-03-13 04:32:00,40.0,35.0,29.71,WNW,286,6.0,-999.0,83,-99.99,,,-99.99,,2013-03-13 08:32:00,
2013-03-13 04:43:00,40.0,35.0,29.71,WNW,286,6.0,-999.0,83,-99.99,,,-99.99,,2013-03-13 08:43:00,
2013-03-13 04:53:00,39.0,34.0,29.72,WNW,294,5.0,-999.0,82,-99.99,,,-99.99,,2013-03-13 08:53:00,
2013-03-13 05:02:00,39.0,34.0,29.72,West,281,3.0,-999.0,82,-99.99,,,-99.99,,2013-03-13 09:02:00,
2013-03-13 05:12:00,39.0,34.0,29.72,West,281,3.0,-999.0,82,-99.99,,,-99.99,,2013-03-13 09:12:00,
2013-03-13 05:22:00,38.0,33.0,29.72,West,276,3.0,-999.0,82,-99.99,,,-99.99,,2013-03-13 09:22:00,
2013-03-13 05:32:00,38.0,33.0,29.73,West,269,1.0,-999.0,82,-99.99,,,-99.99,,2013-03-13 09:32:00,
2013-03-13 05:42:00,38.0,33.0,29.73,West,269,1.0,-999.0,82,-99.99,,,-99.99,,2013-03-13 09:42:00,
2013-03-13 05:52:00,37.0,32.0,29.73,West,270,1.0,-999.0,83,-99.99,,,-99.99,,2013-03-13 09:52:00,
2013-03-13 06:02:00,37.0,33.0,29.74,West,263,1.0,-999.0,84,-99.99,,,-99.99,,2013-03-13 10:02:00,
2013-03-13 06:12:00,37.0,33.0,29.74,West,263,1.0,-999.0,84,-99.99,,,-99.99,,2013-03-13 10:12:00,
2013-03-13 06:22:00,36.0,32.0,29.73,West,269,1.0,-999.0,84,-99.99,,,-99.99,,2013-03-13 10:22:00,
2013-03-13 06:32:00,36.0,32.0,29.72,WNW,298,2.0,-999.0,85,-99.99,,,-99.99,,2013-03-13 10:32:00,
2013-03-13 06:42:00,36.0,32.0,29.72,WNW,298,2.0,-999.0,85,-99.99,,,-99.99,,2013-03-13 10:42:00,
2013-03-13 06:52:00,35.0,31.0,29.73,West,274,1.0,-999.0,84,-99.99,,,-99.99,,2013-03-13 10:52:00,
2013-03-13 07:02:00,35.0,30.0,29.72,West,281,2.0,-999.0,83,-99.99,,,-99.99,,2013-03-13 11:02:00,
2013-03-13 07:12:00,35.0,30.0,29.72,West,281,2.0,-999.0,83,-99.99,,,-99.99,,2013-03-13 11:12:00,
2013-03-13 07:22:00,35.0,30.0,29.72,West,266,3.0,-999.0,83,-99.99,,,-99.99,,2013-03-13 11:22:00,
2013-03-13 07:32:00,35.0,30.0,29.72,WNW,283,1.0,-999.0,83,-99.99,,,-99.99,,2013-03-13 11:32:00,
2013-03-13 07:42:00,35.0,30.0,29.72,WNW,283,1.0,-999.0,83,-99.99,,,-99.99,,2013-03-13 11:42:00,
2013-03-13 07:52:00,35.0,30.0,29.72,West,273,1.0,-999.0,83,-99.99,,,-99.99,,2013-03-13 11:52:00,
2013-03-13 08:02:00,35.0,30.0,29.73,WSW,254,1.0,-999.0,82,-99.99,,,-99.99,,2013-03-13 12:02:00,
2013-03-13 08:12:00,35.0,30.0,29.73,WSW,254,1.0,-999.0,82,-99.99,,,-99.99,,2013-03-13 12:12:00,
2013-03-13 08:22:00,35.0,29.0,29.72,West,263,2.0,-999.0,80,-99.99,,,-99.99,,2013-03-13 12:22:00,
2013-03-13 08:32:00,36.0,30.0,29.72,West,272,1.0,-999.0,80,-99.99,,,-99.99,,2013-03-13 12:32:00,
2013-03-13 08:42:00,36.0,30.0,29.72,West,272,1.0,-999.0,80,-99.99,,,-99.99,,2013-03-13 12:42:00,
2013-03-13 08:52:00,36.0,30.0,29.73,West,281,1.0,-999.0,79,-99.99,,,-99.99,,2013-03-13 12:52:00,
2013-03-13 09:02:00,37.0,31.0,29.72,WNW,292,3.0,-999.0,78,-99.99,,,-99.99,,2013-03-13 13:02:00,
2013-03-13 09:12:00,37.0,31.0,29.72,WNW,292,3.0,-999.0,78,-99.99,,,-99.99,,2013-03-13 13:12:00,
2013-03-13 09:22:00,38.0,31.0,29.72,WNW,300,3.0,-999.0,75,-99.99,,,-99.99,,2013-03-13 13:22:00,
2013-03-13 09:33:00,40.0,32.0,29.72,WNW,282,2.0,-999.0,73,-99.99,,,-99.99,,2013-03-13 13:33:00,
2013-03-13 09:43:00,40.0,32.0,29.72,WNW,282,2.0,-999.0,73,-99.99,,,-99.99,,2013-03-13 13:43:00,
2013-03-13 09:52:00,41.0,33.0,29.71,NW,313,2.0,-999.0,72,-99.99,,,-99.99,,2013-03-13 13:52:00,
2013-03-13 10:03:00,42.0,32.0,29.71,WNW,282,4.0,-999.0,68,-99.99,,,-99.99,,2013-03-13 14:03:00,
2013-03-13 10:12:00,42.0,32.0,29.71,WNW,282,4.0,-999.0,68,-99.99,,,-99.99,,2013-03-13 14:12:00,
2013-03-13 10:22:00,43.0,33.0,29.71,WNW,289,3.0,-999.0,67,-99.99,,,-99.99,,2013-03-13 14:22:00,
2013-03-13 10:33:00,44.0,33.0,29.72,West,277,3.0,-999.0,65,-99.99,,,-99.99,,2013-03-13 14:33:00,
2013-03-13 10:42:00,44.0,33.0,29.72,West,277,3.0,-999.0,65,-99.99,,,-99.99,,2013-03-13 14:42:00,
2013-03-13 10:52:00,45.0,33.0,29.71,WNW,284,5.0,-999.0,62,-99.99,,,-99.99,,2013-03-13 14:52:00,
2013-03-13 11:03:00,45.0,32.0,29.71,West,268,5.0,-999.0,61,-99.99,,,-99.99,,2013-03-13 15:03:00,
2013-03-13 11:12:00,45.0,32.0,29.71,West,268,5.0,-999.0,61,-99.99,,,-99.99,,2013-03-13 15:12:00,
2013-03-13 11:22:00,45.0,33.0,29.71,West,277,3.0,-999.0,62,-99.99,,,-99.99,,2013-03-13 15:22:00,
2013-03-13 11:32:00,46.0,32.0,29.70,NNW,347,4.0,-999.0,59,-99.99,,,-99.99,,2013-03-13 15:32:00,
2013-03-13 11:43:00,46.0,32.0,29.70,NNW,347,4.0,-999.0,59,-99.99,,,-99.99,,2013-03-13 15:43:00,
2013-03-13 11:52:00,48.0,34.0,29.70,WNW,292,3.0,-999.0,57,-99.99,,,-99.99,,2013-03-13 15:52:00,
2013-03-13 12:03:00,48.0,34.0,29.69,West,269,4.0,-999.0,57,-99.99,,,-99.99,,2013-03-13 16:03:00,
2013-03-13 12:12:00,48.0,34.0,29.69,West,269,4.0,-999.0,57,-99.99,,,-99.99,,2013-03-13 16:12:00,
2013-03-13 12:22:00,48.0,33.0,29.70,West,268,7.0,-999.0,55,-99.99,,,-99.99,,2013-03-13 16:22:00,
2013-03-13 12:32:00,48.0,33.0,29.70,West,261,5.0,-999.0,55,-99.99,,,-99.99,,2013-03-13 16:32:00,
2013-03-13 12:42:00,48.0,33.0,29.70,West,261,5.0,-999.0,55,-99.99,,,-99.99,,2013-03-13 16:42:00,
2013-03-13 12:52:00,48.0,32.0,29.70,West,259,7.0,-999.0,53,-99.99,,,-99.99,,2013-03-13 16:52:00,
2013-03-13 13:03:00,48.0,31.0,29.70,West,269,6.0,-999.0,52,-99.99,,,-99.99,,2013-03-13 17:03:00,
2013-03-13 13:12:00,48.0,31.0,29.70,West,269,6.0,-999.0,52,-99.99,,,-99.99,,2013-03-13 17:12:00,
2013-03-13 13:22:00,50.0,33.0,29.69,South,185,3.0,-999.0,52,-99.99,,,-99.99,,2013-03-13 17:22:00,
2013-03-13 13:33:00,51.0,31.0,29.69,West,265,4.0,-999.0,47,-99.99,,,-99.99,,2013-03-13 17:33:00,
2013-03-13 13:42:00,51.0,31.0,29.69,West,265,4.0,-999.0,47,-99.99,,,-99.99,,2013-03-13 17:42:00,
2013-03-13 13:53:00,51.0,33.0,29.69,WNW,290,5.0,-999.0,49,-99.99,,,-99.99,,2013-03-13 17:53:00,
2013-03-13 14:02:00,51.0,31.0,29.68,NW,312,5.0,-999.0,46,-99.99,,,-99.99,,2013-03-13 18:02:00,
2013-03-13 14:12:00,51.0,31.0,29.68,NW,312,5.0,-999.0,46,-99.99,,,-99.99,,2013-03-13 18:12:00,
2013-03-13 14:22:00,51.0,31.0,29.68,West,279,3.0,-999.0,46,-99.99,,,-99.99,,2013-03-13 18:22:00,
2013-03-13 14:33:00,50.0,31.0,29.68,WSW,238,6.0,-999.0,47,-99.99,,,-99.99,,2013-03-13 18:33:00,
2013-03-13 14:42:00,50.0,31.0,29.68,WSW,238,6.0,-999.0,47,-99.99,,,-99.99,,2013-03-13 18:42:00,
2013-03-13 14:52:00,50.0,29.0,29.67,WNW,296,6.0,-999.0,44,-99.99,,,-99.99,,2013-03-13 18:52:00,
2013-03-13 15:03:00,50.0,29.0,29.67,WSW,248,7.0,-999.0,45,-99.99,,,-99.99,,2013-03-13 19:03:00,
2013-03-13 15:12:00,50.0,29.0,29.67,WSW,248,7.0,-999.0,45,-99.99,,,-99.99,,2013-03-13 19:12:00,
2013-03-13 15:22:00,50.0,29.0,29.67,NW,310,6.0,-999.0,44,-99.99,,,-99.99,,2013-03-13 19:22:00,
2013-03-13 15:32:00,49.0,28.0,29.67,NW,310,5.0,-999.0,44,-99.99,,,-99.99,,2013-03-13 19:32:00,
2013-03-13 15:43:00,49.0,28.0,29.67,NW,310,5.0,-999.0,44,-99.99,,,-99.99,,2013-03-13 19:43:00,
2013-03-13 15:52:00,50.0,27.0,29.67,WSW,256,5.0,-999.0,40,-99.99,,,-99.99,,2013-03-13 19:52:00,
2013-03-13 16:02:00,50.0,26.0,29.66,West,276,6.0,-999.0,39,-99.99,,,-99.99,,2013-03-13 20:02:00,
2013-03-13 16:12:00,50.0,26.0,29.66,West,276,6.0,-999.0,39,-99.99,,,-99.99,,2013-03-13 20:12:00,
2013-03-13 16:22:00,50.0,25.0,29.66,WSW,249,5.0,-999.0,37,-99.99,,,-99.99,,2013-03-13 20:22:00,
2013-03-13 16:32:00,49.0,25.0,29.66,WSW,257,5.0,-999.0,38,-99.99,,,-99.99,,2013-03-13 20:32:00,
2013-03-13 16:42:00,49.0,25.0,29.66,WSW,257,5.0,-999.0,38,-99.99,,,-99.99,,2013-03-13 20:42:00,
2013-03-13 16:52:00,49.0,25.0,29.66,WNW,294,5.0,-999.0,38,-99.99,,,-99.99,,2013-03-13 20:52:00,
2013-03-13 17:02:00,49.0,24.0,29.66,West,268,6.0,-999.0,37,-99.99,,,-99.99,,2013-03-13 21:02:00,
2013-03-13 17:12:00,49.0,24.0,29.66,West,268,6.0,-999.0,37,-99.99,,,-99.99,,2013-03-13 21:12:00,
2013-03-13 17:22:00,49.0,23.0,29.67,WNW,294,6.0,-999.0,36,-99.99,,,-99.99,,2013-03-13 21:22:00,
2013-03-13 17:33:00,48.0,21.0,29.67,SW,234,8.0,-999.0,34,-99.99,,,-99.99,,2013-03-13 21:33:00,
2013-03-13 17:42:00,48.0,21.0,29.67,SW,234,8.0,-999.0,34,-99.99,,,-99.99,,2013-03-13 21:42:00,
2013-03-13 17:52:00,48.0,22.0,29.67,West,281,6.0,-999.0,35,-99.99,,,-99.99,,2013-03-13 21:52:00,
2013-03-13 18:02:00,47.0,21.0,29.67,WNW,298,6.0,-999.0,35,-99.99,,,-99.99,,2013-03-13 22:02:00,
2013-03-13 18:12:00,47.0,21.0,29.67,WNW,298,6.0,-999.0,35,-99.99,,,-99.99,,2013-03-13 22:12:00,
2013-03-13 18:22:00,46.0,21.0,29.67,WNW,284,4.0,-999.0,36,-99.99,,,-99.99,,2013-03-13 22:22:00,
2013-03-13 18:32:00,46.0,21.0,29.68,WNW,286,7.0,-999.0,36,-99.99,,,-99.99,,2013-03-13 22:32:00,
2013-03-13 18:42:00,46.0,21.0,29.68,WNW,286,7.0,-999.0,36,-99.99,,,-99.99,,2013-03-13 22:42:00,
2013-03-13 18:52:00,45.0,21.0,29.69,WSW,246,5.0,-999.0,38,-99.99,,,-99.99,,2013-03-13 22:52:00,
2013-03-13 19:02:00,44.0,21.0,29.69,WNW,284,6.0,-999.0,39,-99.99,,,-99.99,,2013-03-13 23:02:00,
2013-03-13 19:12:00,44.0,21.0,29.69,WNW,284,6.0,-999.0,39,-99.99,,,-99.99,,2013-03-13 23:12:00,
2013-03-13 19:22:00,43.0,21.0,29.70,West,281,6.0,-999.0,41,-99.99,,,-99.99,,2013-03-13 23:22:00,
2013-03-13 19:32:00,43.0,21.0,29.70,West,281,6.0,-999.0,41,-99.99,,,-99.99,,2013-03-13 23:32:00,
2013-03-13 19:42:00,43.0,21.0,29.70,West,281,6.0,-999.0,41,-99.99,,,-99.99,,2013-03-13 23:42:00,
2013-03-13 19:52:00,42.0,22.0,29.71,WNW,292,4.0,-999.0,44,-99.99,,,-99.99,,2013-03-13 23:52:00,
2013-03-13 20:02:00,41.0,21.0,29.72,WNW,288,3.0,-999.0,44,-99.99,,,-99.99,,2013-03-14 00:02:00,
2013-03-13 20:13:00,41.0,21.0,29.72,WNW,288,3.0,-999.0,44,-99.99,,,-99.99,,2013-03-14 00:13:00,
2013-03-13 20:22:00,40.0,20.0,29.72,WSW,250,2.0,-999.0,45,-99.99,,,-99.99,,2013-03-14 00:22:00,
2013-03-13 20:32:00,40.0,20.0,29.72,WSW,239,1.0,-999.0,45,-99.99,,,-99.99,,2013-03-14 00:32:00,
2013-03-13 20:42:00,40.0,20.0,29.72,WSW,239,1.0,-999.0,45,-99.99,,,-99.99,,2013-03-14 00:42:00,
2013-03-13 20:52:00,39.0,19.0,29.73,WSW,247,2.0,-999.0,45,-99.99,,,-99.99,,2013-03-14 00:52:00,
2013-03-13 21:03:00,39.0,19.0,29.73,West,259,2.0,-999.0,45,-99.99,,,-99.99,,2013-03-14 01:03:00,
2013-03-13 21:12:00,39.0,19.0,29.73,West,259,2.0,-999.0,45,-99.99,,,-99.99,,2013-03-14 01:12:00,
2013-03-13 21:23:00,39.0,19.0,29.74,West,269,1.0,-999.0,45,-99.99,,,-99.99,,2013-03-14 01:23:00,
2013-03-13 21:32:00,38.0,19.0,29.74,West,269,2.0,-999.0,45,-99.99,,,-99.99,,2013-03-14 01:32:00,
2013-03-13 21:42:00,38.0,19.0,29.74,West,269,2.0,-999.0,45,-99.99,,,-99.99,,2013-03-14 01:42:00,
2013-03-13 21:52:00,38.0,19.0,29.74,WSW,243,1.0,-999.0,45,-99.99,,,-99.99,,2013-03-14 01:52:00,
2013-03-13 22:02:00,38.0,19.0,29.75,WSW,241,1.0,-999.0,46,-99.99,,,-99.99,,2013-03-14 02:02:00,
2013-03-13 22:12:00,38.0,19.0,29.75,WSW,241,1.0,-999.0,46,-99.99,,,-99.99,,2013-03-14 02:12:00,
2013-03-13 22:22:00,38.0,19.0,29.75,WSW,251,2.0,-999.0,46,-99.99,,,-99.99,,2013-03-14 02:22:00,
2013-03-13 22:33:00,37.0,19.0,29.75,West,281,1.0,-999.0,47,-99.99,,,-99.99,,2013-03-14 02:33:00,
2013-03-13 22:42:00,37.0,19.0,29.75,West,281,1.0,-999.0,47,-99.99,,,-99.99,,2013-03-14 02:42:00,
2013-03-13 22:52:00,37.0,19.0,29.75,West,281,1.0,-999.0,47,-99.99,,,-99.99,,2013-03-14 02:52:00,
2013-03-13 23:02:00,36.0,19.0,29.74,WSW,250,0.0,-999.0,49,-99.99,,,-99.99,,2013-03-14 03:02:00,
2013-03-13 23:12:00,36.0,19.0,29.74,WSW,250,0.0,-999.0,49,-99.99,,,-99.99,,2013-03-14 03:12:00,
2013-03-13 23:23:00,36.0,19.0,29.73,WSW,250,0.0,-999.0,50,-99.99,,,-99.99,,2013-03-14 03:23:00,
2013-03-13 23:32:00,35.0,19.0,29.73,WSW,250,0.0,-999.0,51,-99.99,,,-99.99,,2013-03-14 03:32:00,
2013-03-13 23:42:00,35.0,19.0,29.73,WSW,250,0.0,-999.0,51,-99.99,,,-99.99,,2013-03-14 03:42:00,
2013-03-13 23:52:00,35.0,19.0,29.73,WSW,250,0.0,-999.0,51,-99.99,,,-99.99,,2013-03-14 03:52:00,